Tracking 19903 objects as of 17-Oct-2019
HD Live streaming from Space Station
objects crossing your sky now

IRIDIUM 33 DEB

Track IRIDIUM 33 DEB now!
10-day predictions


NORAD ID: 33867
Int'l Code: 1997-051AL
Perigee: 690.4 km
Apogee: 733.2 km
Inclination: 86.4 °
Period: 98.9 minutes
Semi major axis: 7082 km
RCS: 0.1307 m2 (medium)
Launch date: September 14, 1997
Source: United States (US)
Launch site: TYURATAM MISSILE AND SPACE COMPLEX (TTMTR)

Note: This is SATELLITE DEBRIS
aabbcc
Your satellite tracking list
Your tracking list is empty




NASA's NSSDC Master Catalog

Two Line Element Set (TLE):
1 33867U 97051AL  19288.95857630  .00000624  00000-0  13470-3 0  9990
2 33867  86.4167 263.3114 0030230 210.6508 149.2936 14.56460878564560
Source of the keplerian elements: AFSPC